Погода в Мбее

Танзания     8°54′30″S   33°26′55″E
темп.,
°C
ветер,
м/с
пор.,
м/с
влажн.,
%
обл.,
%
осадки,
мм/ч
давл.,
гПа
погр.,
м
7 августа, вс
вс700:00+8юв23900 0.0 102170
03:00+8юв23960 0.0 101958
06:00+7юв22963 0.0 102044
09:00+13юв24590 0.0 1020526
12:00+20ююв233448 0.0 10181511
15:00+22ю34324 0.0 10141691
18:00+17юв35504 0.0 1017554
21:00+10юв33804 0.0 102065
8 августа, пн
пн800:00+9юв34860 0.0 102174
03:00+8юв23948 0.0 101965
06:00+7юв239610 0.0 101959
09:00+14юв24614 0.0 1019454
12:00+21ююв34345 0.0 10171440
15:00+22ююв44355 0.0 10141528
18:00+17ююв35525 0.0 1016492
21:00+10юв348269 0.0 102172
9 августа, вт
вт900:00+10юв337742 0.0 102058
03:00+9юв338212 0.0 101958
06:00+8вюв23849 0.0 101948
09:00+15юв24544 0.0 1019454
12:00+22ююв23305 0.0 10171449
15:00+23ююв33315 0.0 10141743
18:00+18юв35465 0.0 1016552
21:00+11юв34780 0.0 102190
10 августа, ср
ср1000:00+10юв34820 0.0 102181
03:00+10юв338414 0.0 101959
06:00+9юв3486100 0.0 102067
09:00+15юв245599 0.0 1019454
12:00+22ююв23335 0.0 10171653
15:00+23ю43347 0.0 10141925
18:00+18ююв365211 0.0 1016534
21:00+11юв34781 0.0 101980
11 августа, чт
чт1100:00+10юв34770 0.0 102085
03:00+9юв35845 0.0 101897
06:00+8юв3490100 0.0 101980
09:00+15вюв2556100 0.0 1019496
12:00+21ююв2236100 0.0 10181607
15:00+22ююв4334100 0.0 10141637
18:00+17ююв3555100 0.0 1016514
21:00+11юв238197 0.0 101971